| time (UTC) | temp F | wind direction | speed knots | gust knots | rain 1hr in | rain 24hr in | rain mn in | humidity % | barometer mb |
| 20260906203502 | 83 | 138 | 9.6 | 19.1 | 0.00 | 0.00 | 0.00 | 60 | 1014.7 |
| 20260906203004 | 83 | 133 | 9.6 | 19.1 | 0.00 | 0.00 | 0.00 | 59 | 1014.7 |
| 20260906202502 | 83 | 135 | 9.6 | 26.1 | 0.00 | 0.00 | 0.00 | 59 | 1014.8 |
| 20260906202004 | 83 | 137 | 9.6 | 26.1 | 0.00 | 0.00 | 0.00 | 58 | 1014.9 |
| 20260906201502 | 84 | 138 | 8.7 | 14.8 | 0.00 | 0.00 | 0.00 | 59 | 1014.9 |
| 20260906201003 | 83 | 134 | 8.7 | 17.4 | 0.00 | 0.00 | 0.00 | 59 | 1014.9 |
| 20260906200502 | 83 | 137 | 8.7 | 17.4 | 0.00 | 0.00 | 0.00 | 58 | 1014.9 |
| 20260906200004 | 83 | 144 | 9.6 | 15.6 | 0.00 | 0.00 | 0.00 | 58 | 1015.0 |
| 20260906195502 | 82 | 142 | 10.4 | 17.4 | 0.00 | 0.00 | 0.00 | 57 | 1015.0 |
| 20260906195003 | 83 | 130 | 12.2 | 18.2 | 0.00 | 0.00 | 0.00 | 57 | 1015.0 |
| 20260906194502 | 82 | 127 | 12.2 | 18.2 | 0.00 | 0.00 | 0.00 | 60 | 1015.2 |
| 20260906194003 | 82 | 121 | 12.2 | 18.2 | 0.00 | 0.00 | 0.00 | 59 | 1015.2 |
| 20260906193502 | 82 | 121 | 13.9 | 20.9 | 0.00 | 0.00 | 0.00 | 59 | 1015.3 |
| 20260906193003 | 81 | 127 | 13.9 | 20.9 | 0.00 | 0.00 | 0.00 | 60 | 1015.4 |
| 20260906192502 | 81 | 121 | 13.9 | 20.0 | 0.00 | 0.00 | 0.00 | 59 | 1015.4 |
| 20260906192003 | 82 | 119 | 15.6 | 21.7 | 0.00 | 0.00 | 0.00 | 60 | 1015.4 |
| 20260906191502 | 81 | 121 | 18.2 | 26.9 | 0.00 | 0.00 | 0.00 | 60 | 1015.6 |
| 20260906191003 | 81 | 115 | 16.5 | 26.9 | 0.00 | 0.00 | 0.00 | 60 | 1015.7 |
| 20260906190502 | 81 | 116 | 16.5 | 26.1 | 0.00 | 0.00 | 0.00 | 59 | 1015.7 |
| 20260906190003 | 81 | 121 | 18.2 | 26.1 | 0.00 | 0.00 | 0.00 | 60 | 1015.8 |
| 20260906185502 | 80 | 123 | 16.5 | 24.3 | 0.00 | 0.00 | 0.00 | 61 | 1016.0 |
| 20260906184502 | 80 | 110 | 20.0 | 26.1 | 0.00 | 0.00 | 0.00 | 64 | 1016.1 |
| 20260906182502 | 80 | 109 | 18.2 | 28.7 | 0.00 | 0.00 | 0.00 | 58 | 1016.3 |
| 20260906181502 | 80 | 107 | 16.5 | 26.9 | 0.00 | 0.00 | 0.00 | 58 | 1016.5 |
| 20260906181004 | 81 | 107 | 16.5 | 24.3 | 0.00 | 0.00 | 0.00 | 57 | 1016.6 |
| 20260906180502 | 82 | 109 | 15.6 | 24.3 | 0.00 | 0.00 | 0.00 | 56 | 1016.6 |
| 20260906180004 | 82 | 117 | 15.6 | 19.1 | 0.00 | 0.00 | 0.00 | 57 | 1016.6 |
| 20260906175502 | 82 | 120 | 13.9 | 18.2 | 0.00 | 0.00 | 0.00 | 56 | 1016.7 |
| 20260906175004 | 83 | 119 | 12.2 | 19.1 | 0.00 | 0.00 | 0.00 | 54 | 1016.6 |
| 20260906174502 | 83 | 124 | 13.0 | 24.3 | 0.00 | 0.00 | 0.00 | 56 | 1016.7 |
| 20260906174004 | 83 | 124 | 13.0 | 24.3 | 0.00 | 0.00 | 0.00 | 54 | 1016.8 |
| 20260906173502 | 82 | 126 | 13.0 | 21.7 | 0.00 | 0.00 | 0.00 | 56 | 1016.9 |
| 20260906173004 | 83 | 124 | 13.0 | 21.7 | 0.00 | 0.00 | 0.00 | 52 | 1016.9 |
| 20260906172502 | 83 | 127 | 9.6 | 17.4 | 0.00 | 0.00 | 0.00 | 52 | 1016.8 |
| 20260906171502 | 83 | 127 | 10.4 | 17.4 | 0.00 | 0.00 | 0.00 | 53 | 1017.0 |
| 20260906171004 | 83 | 131 | 9.6 | 17.4 | 0.00 | 0.00 | 0.00 | 54 | 1017.0 |
| 20260906170502 | 82 | 135 | 8.7 | 17.4 | 0.00 | 0.00 | 0.00 | 53 | 1017.0 |
| 20260906170004 | 82 | 138 | 8.7 | 17.4 | 0.00 | 0.00 | 0.00 | 52 | 1017.0 |
| 20260906165004 | 83 | 131 | 10.4 | 20.0 | 0.00 | 0.00 | 0.00 | 54 | 1016.9 |
| 20260906164503 | 82 | 126 | 10.4 | 17.4 | 0.00 | 0.00 | 0.00 | 52 | 1016.8 |
| 20260906164004 | 83 | 119 | 10.4 | 17.4 | 0.00 | 0.00 | 0.00 | 53 | 1016.7 |
| 20260906163004 | 82 | 124 | 9.6 | 14.8 | 0.00 | 0.00 | 0.00 | 51 | 1017.0 |
| 20260906162502 | 82 | 128 | 8.7 | 14.8 | 0.00 | 0.00 | 0.00 | 52 | 1017.0 |
| 20260906162003 | 82 | 131 | 8.7 | 13.0 | 0.00 | 0.00 | 0.00 | 51 | 1017.1 |
| 20260906161502 | 82 | 124 | 9.6 | 14.8 | 0.00 | 0.00 | 0.00 | 51 | 1017.0 |
| 20260906161004 | 81 | 126 | 8.7 | 14.8 | 0.00 | 0.00 | 0.00 | 53 | 1017.0 |
| 20260906160502 | 81 | 127 | 7.0 | 12.2 | 0.00 | 0.00 | 0.00 | 52 | 1017.1 |
| 20260906160004 | 81 | 128 | 7.0 | 13.0 | 0.00 | 0.00 | 0.00 | 52 | 1017.1 |
| 20260906155502 | 81 | 134 | 7.0 | 13.0 | 0.00 | 0.00 | 0.00 | 52 | 1017.1 |
| 20260906155004 | 81 | 130 | 8.7 | 13.0 | 0.00 | 0.00 | 0.00 | 52 | 1017.1 |
| 20260906154502 | 81 | 121 | 10.4 | 17.4 | 0.00 | 0.00 | 0.00 | 52 | 1017.1 |
| 20260906154004 | 80 | 117 | 13.0 | 17.4 | 0.00 | 0.00 | 0.00 | 53 | 1017.0 |
| 20260906153004 | 80 | 112 | 9.6 | 13.9 | 0.00 | 0.00 | 0.00 | 53 | 1017.0 |
| 20260906152502 | 80 | 116 | 9.6 | 13.0 | 0.00 | 0.00 | 0.00 | 53 | 1017.0 |
| 20260906152004 | 80 | 113 | 10.4 | 13.9 | 0.00 | 0.00 | 0.00 | 54 | 1016.8 |
| 20260906151502 | 79 | 111 | 12.2 | 14.8 | 0.00 | 0.00 | 0.00 | 53 | 1016.8 |
| 20260906151004 | 79 | 108 | 12.2 | 14.8 | 0.00 | 0.00 | 0.00 | 54 | 1016.9 |
| 20260906150004 | 79 | 106 | 10.4 | 18.2 | 0.00 | 0.00 | 0.00 | 57 | 1017.1 |
| 20260906145502 | 78 | 107 | 9.6 | 13.0 | 0.00 | 0.00 | 0.00 | 57 | 1017.1 |
| 20260906145004 | 77 | 105 | 7.0 | 10.4 | 0.00 | 0.00 | 0.00 | 60 | 1017.2 |
| 20260906144004 | 76 | 86 | 4.3 | 7.0 | 0.00 | 0.00 | 0.00 | 62 | 1017.4 |
| 20260906143503 | 76 | 69 | 3.5 | 7.0 | 0.00 | 0.00 | 0.00 | 64 | 1017.3 |
| 20260906142004 | 77 | 65 | 2.6 | 4.3 | 0.00 | 0.00 | 0.00 | 63 | 1017.1 |
| 20260906141502 | 76 | 75 | 0.9 | 4.3 | 0.00 | 0.00 | 0.00 | 64 | 1017.1 |
| 20260906141004 | 74 | 78 | 0.9 | 1.7 | 0.00 | 0.00 | 0.00 | 68 | 1017.1 |
| 20260906140502 | 73 | 76 | 0.9 | 2.6 | 0.00 | 0.00 | 0.00 | 68 | 1017.0 |
| 20260906140003 | 72 | 73 | 0.9 | 2.6 | 0.00 | 0.00 | 0.00 | 73 | 1016.9 |
| 20260906135004 | 72 | 67 | 2.6 | 4.3 | 0.00 | 0.00 | 0.00 | 69 | 1016.8 |
| 20260906134502 | 72 | 79 | 2.6 | 4.3 | 0.00 | 0.00 | 0.00 | 71 | 1016.7 |
| 20260906134004 | 71 | 115 | 0.9 | 4.3 | 0.00 | 0.00 | 0.00 | 71 | 1016.6 |
| 20260906133503 | 72 | 126 | 0.9 | 2.6 | 0.00 | 0.00 | 0.00 | 71 | 1016.5 |
| 20260906132004 | 71 | 331 | 2.6 | 5.2 | 0.00 | 0.00 | 0.00 | 69 | 1016.4 |
| 20260906131502 | 72 | 16 | 2.6 | 5.2 | 0.00 | 0.00 | 0.00 | 69 | 1016.7 |
| 20260906131004 | 71 | 334 | 3.5 | 7.8 | 0.00 | 0.00 | 0.00 | 69 | 1016.7 |
| 20260906130004 | 71 | 325 | 4.3 | 7.8 | 0.00 | 0.00 | 0.00 | 68 | 1016.5 |
| 20260906124503 | 74 | 78 | 3.5 | 4.3 | 0.00 | 0.00 | 0.00 | 60 | 1016.3 |
| 20260906124004 | 73 | 89 | 2.6 | 4.3 | 0.00 | 0.00 | 0.00 | 65 | 1016.4 |
| 20260906123502 | 72 | 104 | 0.9 | 1.7 | 0.00 | 0.00 | 0.00 | 68 | 1016.3 |
| 20260906123004 | 72 | 112 | 2.6 | 4.3 | 0.00 | 0.00 | 0.00 | 66 | 1016.2 |
| 20260906122502 | 73 | 127 | 0.9 | 4.3 | 0.00 | 0.00 | 0.00 | 64 | 1016.1 |
| 20260906122004 | 72 | 270 | 2.6 | 6.1 | 0.00 | 0.00 | 0.00 | 67 | 1016.0 |
| 20260906121503 | 74 | 280 | 3.5 | 6.1 | 0.00 | 0.00 | 0.00 | 61 | 1015.6 |
| 20260906121004 | 73 | 296 | 4.3 | 7.0 | 0.00 | 0.00 | 0.00 | 62 | 1015.7 |
| 20260906120502 | 74 | 302 | 3.5 | 7.0 | 0.00 | 0.00 | 0.00 | 61 | 1015.7 |
| 20260906120004 | 74 | 281 | 2.6 | 7.0 | 0.00 | 0.00 | 0.00 | 60 | 1015.7 |
| 20260906115503 | 75 | 224 | 4.3 | 11.3 | 0.00 | 0.00 | 0.00 | 59 | 1016.0 |
| 20260906114503 | 75 | 226 | 7.0 | 13.9 | 0.00 | 0.00 | 0.00 | 59 | 1015.8 |
| 20260906114004 | 76 | 211 | 6.1 | 12.2 | 0.00 | 0.00 | 0.00 | 57 | 1015.9 |
| 20260906113503 | 75 | 223 | 6.1 | 10.4 | 0.00 | 0.00 | 0.00 | 58 | 1015.7 |
| 20260906113004 | 76 | 249 | 8.7 | 13.9 | 0.00 | 0.00 | 0.00 | 54 | 1015.7 |
| 20260906112502 | 76 | 254 | 9.6 | 13.9 | 0.00 | 0.00 | 0.00 | 54 | 1015.7 |
| 20260906112004 | 76 | 269 | 9.6 | 14.8 | 0.00 | 0.00 | 0.00 | 57 | 1016.0 |
| 20260906111502 | 76 | 270 | 10.4 | 14.8 | 0.00 | 0.00 | 0.00 | 56 | 1016.0 |
| 20260906111004 | 76 | 265 | 9.6 | 13.0 | 0.00 | 0.00 | 0.00 | 56 | 1016.1 |
| 20260906110502 | 76 | 266 | 8.7 | 12.2 | 0.00 | 0.00 | 0.00 | 54 | 1016.0 |
| 20260906110004 | 77 | 248 | 6.1 | 13.0 | 0.00 | 0.00 | 0.00 | 52 | 1015.9 |
| 20260906105004 | 76 | 228 | 4.3 | 8.7 | 0.00 | 0.00 | 0.00 | 54 | 1015.8 |
| 20260906104503 | 76 | 262 | 6.1 | 11.3 | 0.00 | 0.00 | 0.00 | 56 | 1015.9 |
| 20260906104003 | 76 | 272 | 6.1 | 11.3 | 0.00 | 0.00 | 0.00 | 59 | 1015.8 |
| 20260906103502 | 76 | 229 | 3.5 | 10.4 | 0.00 | 0.00 | 0.00 | 60 | 1015.7 |
| 20260906103004 | 75 | 280 | 7.0 | 17.4 | 0.00 | 0.00 | 0.00 | 61 | 1015.3 |
| 20260906102503 | 76 | 297 | 10.4 | 17.4 | 0.00 | 0.00 | 0.00 | 60 | 1015.2 |
| 20260906102004 | 74 | 288 | 9.6 | 15.6 | 0.00 | 0.00 | 0.00 | 66 | 1015.7 |
| 20260906101502 | 74 | 242 | 9.6 | 14.8 | 0.00 | 0.00 | 0.00 | 67 | 1015.5 |
| 20260906101004 | 74 | 168 | 10.4 | 21.7 | 0.00 | 0.00 | 0.00 | 68 | 1015.0 |
| 20260906100502 | 74 | 152 | 9.6 | 21.7 | 0.00 | 0.00 | 0.00 | 68 | 1014.3 |
| 20260906100004 | 75 | 135 | 8.7 | 15.6 | 0.00 | 0.00 | 0.00 | 75 | 1013.7 |
| 20260906095503 | 75 | 123 | 8.7 | 12.2 | 0.00 | 0.00 | 0.00 | 82 | 1013.8 |
| 20260906094502 | 74 | 114 | 4.3 | 10.4 | 0.00 | 0.00 | 0.00 | 88 | 1014.2 |
| 20260906094004 | 74 | 114 | 7.0 | 8.7 | 0.00 | 0.00 | 0.00 | 89 | 1014.2 |
| 20260906093503 | 74 | 116 | 7.0 | 8.7 | 0.00 | 0.00 | 0.00 | 89 | 1014.3 |
| 20260906093003 | 74 | 112 | 6.1 | 8.7 | 0.00 | 0.00 | 0.00 | 89 | 1014.2 |
| 20260906092503 | 74 | 111 | 4.3 | 8.7 | 0.00 | 0.00 | 0.00 | 88 | 1014.0 |
| 20260906092003 | 74 | 116 | 3.5 | 7.0 | 0.00 | 0.00 | 0.00 | 89 | 1014.0 |
| 20260906091502 | 74 | 114 | 3.5 | 7.0 | 0.00 | 0.00 | 0.00 | 89 | 1014.2 |
| 20260906091004 | 74 | 111 | 3.5 | 7.0 | 0.00 | 0.00 | 0.00 | 89 | 1014.3 |
| 20260906090502 | 72 | 123 | 0.9 | 6.1 | 0.00 | 0.00 | 0.00 | 92 | 1014.5 |
| 20260906090003 | 72 | 297 | 0.9 | 2.6 | 0.00 | 0.00 | 0.00 | 92 | 1014.6 |
| 20260906085502 | 73 | 4 | 0.9 | 2.6 | 0.00 | 0.00 | 0.00 | 92 | 1014.6 |
| 20260906085004 | 73 | 88 | 0.9 | 2.6 | 0.00 | 0.00 | 0.00 | 90 | 1014.7 |
| 20260906084503 | 74 | 117 | 0.0 | 2.6 | 0.00 | 0.00 | 0.00 | 90 | 1014.8 |
| 20260906084004 | 74 | 124 | 0.9 | 2.6 | 0.00 | 0.00 | 0.00 | 89 | 1014.9 |
| 20260906083004 | 74 | 124 | 0.9 | 1.7 | 0.00 | 0.00 | 0.00 | 89 | 1014.9 |
| 20260906082502 | 73 | 122 | 0.9 | 1.7 | 0.00 | 0.00 | 0.00 | 91 | 1014.9 |
| 20260906082004 | 73 | 123 | 0.0 | 1.7 | 0.00 | 0.00 | 0.00 | 92 | 1014.8 |
| 20260906081004 | 74 | 121 | 0.9 | 2.6 | 0.00 | 0.00 | 0.00 | 90 | 1014.8 |
| 20260906080502 | 74 | 125 | 0.9 | 5.2 | 0.00 | 0.00 | 0.00 | 88 | 1014.9 |
| 20260906080003 | 74 | 123 | 2.6 | 6.1 | 0.00 | 0.00 | 0.00 | 88 | 1015.1 |
| 20260906075502 | 75 | 125 | 3.5 | 7.0 | 0.00 | 0.00 | 0.00 | 88 | 1015.2 |
| 20260906074004 | 74 | 115 | 3.5 | 6.1 | 0.00 | 0.00 | 0.00 | 88 | 1015.5 |
| 20260906073502 | 75 | 113 | 4.3 | 7.0 | 0.00 | 0.00 | 0.00 | 88 | 1015.4 |
| 20260906073004 | 75 | 116 | 3.5 | 7.0 | 0.00 | 0.00 | 0.00 | 88 | 1015.5 |
| 20260906072503 | 75 | 109 | 0.9 | 4.3 | 0.00 | 0.00 | 0.00 | 87 | 1015.6 |
| 20260906072004 | 75 | 102 | 2.6 | 6.1 | 0.00 | 0.00 | 0.00 | 87 | 1015.6 |
| 20260906071503 | 75 | 106 | 3.5 | 6.1 | 0.00 | 0.00 | 0.00 | 87 | 1015.4 |
| 20260906071004 | 75 | 116 | 2.6 | 4.3 | 0.00 | 0.00 | 0.00 | 87 | 1015.3 |
| 20260906070503 | 75 | 105 | 3.5 | 5.2 | 0.00 | 0.00 | 0.00 | 86 | 1015.1 |
| 20260906070004 | 75 | 98 | 3.5 | 5.2 | 0.00 | 0.00 | 0.00 | 86 | 1015.1 |
| 20260906065503 | 76 | 114 | 4.3 | 7.8 | 0.00 | 0.00 | 0.00 | 86 | 1015.1 |
| 20260906065004 | 76 | 107 | 6.1 | 7.8 | 0.00 | 0.00 | 0.00 | 86 | 1014.8 |
| 20260906064502 | 76 | 104 | 6.1 | 8.7 | 0.00 | 0.00 | 0.00 | 84 | 1014.6 |
| 20260906064004 | 76 | 112 | 6.1 | 8.7 | 0.00 | 0.00 | 0.00 | 84 | 1014.9 |
| 20260906062503 | 76 | 110 | 4.3 | 8.7 | 0.00 | 0.00 | 0.00 | 84 | 1014.8 |
| 20260906062004 | 76 | 116 | 6.1 | 10.4 | 0.00 | 0.00 | 0.00 | 83 | 1015.0 |
| 20260906061502 | 76 | 121 | 7.0 | 10.4 | 0.00 | 0.00 | 0.00 | 83 | 1015.1 |
| 20260906061004 | 76 | 121 | 6.1 | 8.7 | 0.00 | 0.00 | 0.00 | 82 | 1015.1 |
| 20260906060004 | 77 | 121 | 4.3 | 7.0 | 0.00 | 0.00 | 0.00 | 81 | 1015.4 |
| 20260906055502 | 77 | 118 | 6.1 | 7.0 | 0.00 | 0.00 | 0.00 | 80 | 1015.2 |
| 20260906054004 | 78 | 106 | 6.1 | 7.8 | 0.00 | 0.00 | 0.00 | 79 | 1014.9 |
| 20260906053503 | 78 | 120 | 4.3 | 7.8 | 0.00 | 0.00 | 0.00 | 79 | 1014.9 |
| 20260906053004 | 78 | 148 | 2.6 | 7.0 | 0.00 | 0.00 | 0.00 | 78 | 1015.1 |
| 20260906052004 | 78 | 92 | 3.5 | 7.0 | 0.00 | 0.00 | 0.00 | 77 | 1014.8 |
| 20260906051503 | 78 | 99 | 4.3 | 10.4 | 0.00 | 0.00 | 0.00 | 77 | 1014.8 |
| 20260906051004 | 79 | 95 | 6.1 | 10.4 | 0.00 | 0.00 | 0.00 | 76 | 1014.4 |
| 20260906050502 | 79 | 90 | 4.3 | 10.4 | 0.00 | 0.00 | 0.00 | 76 | 1014.4 |
| 20260906045502 | 79 | 100 | 4.3 | 7.8 | 0.00 | 0.00 | 0.00 | 75 | 1014.8 |
| 20260906045004 | 80 | 100 | 6.1 | 10.4 | 0.00 | 0.00 | 0.00 | 73 | 1014.9 |
| 20260906044503 | 80 | 102 | 4.3 | 10.4 | 0.00 | 0.00 | 0.00 | 72 | 1014.9 |
| 20260906044004 | 80 | 103 | 6.1 | 11.3 | 0.00 | 0.00 | 0.00 | 73 | 1014.9 |
| 20260906043502 | 80 | 100 | 7.0 | 11.3 | 0.00 | 0.00 | 0.00 | 74 | 1014.8 |
| 20260906043004 | 79 | 99 | 7.0 | 11.3 | 0.00 | 0.00 | 0.00 | 74 | 1014.7 |
| 20260906042004 | 79 | 100 | 7.0 | 11.3 | 0.00 | 0.00 | 0.00 | 74 | 1014.8 |
| 20260906041503 | 79 | 95 | 7.0 | 11.3 | 0.00 | 0.00 | 0.00 | 75 | 1014.8 |
| 20260906041004 | 80 | 101 | 7.0 | 11.3 | 0.00 | 0.00 | 0.00 | 73 | 1014.8 |
| 20260906040503 | 78 | 97 | 6.1 | 11.3 | 0.00 | 0.00 | 0.00 | 76 | 1014.8 |
| 20260906040004 | 78 | 86 | 4.3 | 11.3 | 0.00 | 0.00 | 0.00 | 77 | 1014.8 |
| 20260906035503 | 78 | 85 | 3.5 | 7.8 | 0.00 | 0.00 | 0.00 | 77 | 1014.9 |
| 20260906035004 | 78 | 91 | 2.6 | 5.2 | 0.00 | 0.00 | 0.00 | 77 | 1014.9 |
| 20260906034503 | 78 | 102 | 2.6 | 4.3 | 0.00 | 0.00 | 0.00 | 77 | 1014.9 |
| 20260906034004 | 78 | 119 | 2.6 | 6.1 | 0.00 | 0.00 | 0.00 | 77 | 1014.8 |
| 20260906033503 | 78 | 112 | 2.6 | 6.1 | 0.00 | 0.00 | 0.00 | 76 | 1014.8 |
| 20260906033004 | 78 | 98 | 2.6 | 4.3 | 0.00 | 0.00 | 0.00 | 77 | 1014.9 |
| 20260906032502 | 77 | 106 | 0.9 | 4.3 | 0.00 | 0.00 | 0.00 | 78 | 1014.9 |
| 20260906032004 | 77 | 120 | 0.9 | 1.7 | 0.00 | 0.00 | 0.00 | 79 | 1014.9 |
| 20260906031502 | 76 | 121 | 0.9 | 1.7 | 0.00 | 0.00 | 0.00 | 80 | 1014.9 |
| 20260906031004 | 76 | 120 | 0.0 | 1.7 | 0.00 | 0.00 | 0.00 | 79 | 1014.9 |
| 20260906030503 | 77 | 120 | 0.0 | 1.7 | 0.00 | 0.00 | 0.00 | 79 | 1014.9 |
| 20260906030004 | 77 | 121 | 0.0 | 1.7 | 0.00 | 0.00 | 0.00 | 78 | 1015.1 |
| 20260906025503 | 78 | 109 | 0.9 | 2.6 | 0.00 | 0.00 | 0.00 | 76 | 1015.1 |
| 20260906025004 | 78 | 102 | 2.6 | 4.3 | 0.00 | 0.00 | 0.00 | 75 | 1015.0 |
| 20260906024004 | 79 | 111 | 3.5 | 7.8 | 0.00 | 0.00 | 0.00 | 74 | 1014.9 |
| 20260906023502 | 79 | 106 | 4.3 | 7.8 | 0.00 | 0.00 | 0.00 | 74 | 1014.8 |
| 20260906023004 | 79 | 101 | 6.1 | 7.8 | 0.00 | 0.00 | 0.00 | 74 | 1014.8 |
| 20260906022502 | 79 | 98 | 6.1 | 7.8 | 0.00 | 0.00 | 0.00 | 74 | 1014.9 |
| 20260906022003 | 79 | 101 | 6.1 | 8.7 | 0.00 | 0.00 | 0.00 | 73 | 1014.8 |
| 20260906021502 | 80 | 109 | 4.3 | 8.7 | 0.00 | 0.00 | 0.00 | 71 | 1014.9 |
| 20260906021004 | 80 | 117 | 3.5 | 7.8 | 0.00 | 0.00 | 0.00 | 69 | 1014.9 |
| 20260906020004 | 80 | 119 | 2.6 | 4.3 | 0.00 | 0.00 | 0.00 | 69 | 1014.7 |
| 20260906015502 | 81 | 115 | 2.6 | 4.3 | 0.00 | 0.00 | 0.00 | 69 | 1014.6 |
| 20260906015005 | 81 | 113 | 2.6 | 4.3 | 0.00 | 0.00 | 0.00 | 68 | 1014.4 |
| 20260906014502 | 81 | 118 | 2.6 | 4.3 | 0.00 | 0.00 | 0.00 | 68 | 1014.4 |
| 20260906014004 | 81 | 118 | 0.9 | 2.6 | 0.00 | 0.00 | 0.00 | 67 | 1014.2 |
| 20260906013503 | 81 | 115 | 2.6 | 4.3 | 0.00 | 0.00 | 0.00 | 67 | 1014.0 |
| 20260906013004 | 82 | 115 | 3.5 | 4.3 | 0.00 | 0.00 | 0.00 | 67 | 1014.0 |
| 20260906012503 | 82 | 114 | 3.5 | 4.3 | 0.00 | 0.00 | 0.00 | 67 | 1013.9 |
| 20260906012004 | 82 | 114 | 3.5 | 4.3 | 0.00 | 0.00 | 0.00 | 67 | 1013.8 |
| 20260906011503 | 82 | 116 | 3.5 | 4.3 | 0.00 | 0.00 | 0.00 | 67 | 1013.7 |
| 20260906011004 | 82 | 118 | 3.5 | 4.3 | 0.00 | 0.00 | 0.00 | 65 | 1013.4 |
| 20260906010503 | 83 | 121 | 2.6 | 4.3 | 0.00 | 0.00 | 0.00 | 63 | 1013.1 |
| 20260906010004 | 83 | 153 | 0.9 | 2.6 | 0.00 | 0.00 | 0.00 | 63 | 1012.9 |
| 20260906005502 | 83 | 195 | 2.6 | 6.1 | 0.00 | 0.00 | 0.00 | 64 | 1012.9 |
| 20260906005005 | 83 | 186 | 3.5 | 6.1 | 0.00 | 0.00 | 0.00 | 64 | 1012.9 |
| 20260906004004 | 84 | 189 | 4.3 | 10.4 | 0.00 | 0.00 | 0.00 | 63 | 1012.7 |
| 20260906003004 | 84 | 195 | 4.3 | 7.8 | 0.00 | 0.00 | 0.00 | 62 | 1012.6 |
| 20260906002503 | 84 | 204 | 4.3 | 8.7 | 0.00 | 0.00 | 0.00 | 63 | 1012.8 |
| 20260906001503 | 84 | 224 | 4.3 | 8.7 | 0.00 | 0.00 | 0.00 | 61 | 1013.0 |
| 20260906001004 | 85 | 224 | 4.3 | 7.0 | 0.00 | 0.00 | 0.00 | 62 | 1013.1 |
| 20260906000503 | 85 | 216 | 4.3 | 11.3 | 0.00 | 0.00 | 0.00 | 61 | 1013.1 |
| 20260906000004 | 85 | 210 | 4.3 | 11.3 | 0.00 | 0.00 | 0.00 | 61 | 1013.0 |
| 20260905235004 | 85 | 213 | 3.5 | 8.7 | 0.00 | 0.00 | 0.00 | 61 | 1013.2 |
| 20260905234503 | 84 | 197 | 4.3 | 10.4 | 0.00 | 0.00 | 0.00 | 63 | 1013.3 |
| 20260905234004 | 85 | 182 | 4.3 | 10.4 | 0.00 | 0.00 | 0.00 | 61 | 1013.4 |
| 20260905233502 | 85 | 171 | 4.3 | 8.7 | 0.00 | 0.00 | 0.00 | 63 | 1013.4 |
| 20260905233004 | 85 | 169 | 6.1 | 11.3 | 0.00 | 0.00 | 0.00 | 62 | 1013.4 |
| 20260905232503 | 86 | 169 | 6.1 | 11.3 | 0.00 | 0.00 | 0.00 | 61 | 1013.4 |
| 20260905232004 | 85 | 172 | 3.5 | 8.7 | 0.00 | 0.00 | 0.00 | 63 | 1013.4 |
| 20260905231503 | 85 | 177 | 3.5 | 7.0 | 0.00 | 0.00 | 0.00 | 64 | 1013.4 |
| 20260905231004 | 85 | 178 | 4.3 | 7.8 | 0.00 | 0.00 | 0.00 | 64 | 1013.4 |
| 20260905230005 | 85 | 171 | 7.0 | 14.8 | 0.00 | 0.00 | 0.00 | 64 | 1013.5 |
| 20260905225502 | 86 | 170 | 8.7 | 14.8 | 0.00 | 0.00 | 0.00 | 63 | 1013.6 |
| 20260905225004 | 86 | 172 | 7.0 | 13.0 | 0.00 | 0.00 | 0.00 | 62 | 1013.6 |
| 20260905224503 | 86 | 173 | 7.0 | 14.8 | 0.00 | 0.00 | 0.00 | 62 | 1013.8 |
| 20260905224004 | 86 | 168 | 9.6 | 17.4 | 0.00 | 0.00 | 0.00 | 62 | 1013.8 |
| 20260905223503 | 86 | 168 | 9.6 | 17.4 | 0.00 | 0.00 | 0.00 | 61 | 1013.8 |
| 20260905222503 | 86 | 160 | 8.7 | 17.4 | 0.00 | 0.00 | 0.00 | 60 | 1014.0 |
| 20260905221503 | 86 | 162 | 9.6 | 20.0 | 0.00 | 0.00 | 0.00 | 60 | 1014.2 |
| 20260905221004 | 87 | 159 | 9.6 | 20.0 | 0.00 | 0.00 | 0.00 | 59 | 1014.1 |
| 20260905220502 | 87 | 155 | 9.6 | 17.4 | 0.00 | 0.00 | 0.00 | 58 | 1014.1 |
| 20260905220005 | 86 | 155 | 10.4 | 18.2 | 0.00 | 0.00 | 0.00 | 59 | 1014.0 |
| 20260905215503 | 87 | 155 | 9.6 | 18.2 | 0.00 | 0.00 | 0.00 | 58 | 1014.0 |
| 20260905215004 | 87 | 148 | 10.4 | 19.1 | 0.00 | 0.00 | 0.00 | 58 | 1013.9 |
| 20260905214503 | 87 | 152 | 10.4 | 19.1 | 0.00 | 0.00 | 0.00 | 57 | 1014.0 |
| 20260905214005 | 87 | 152 | 10.4 | 20.0 | 0.00 | 0.00 | 0.00 | 58 | 1014.1 |
| 20260905213503 | 87 | 149 | 10.4 | 20.0 | 0.00 | 0.00 | 0.00 | 58 | 1014.3 |
| 20260905213004 | 87 | 153 | 10.4 | 19.1 | 0.00 | 0.00 | 0.00 | 58 | 1014.3 |
| 20260905212004 | 87 | 155 | 13.9 | 22.6 | 0.00 | 0.00 | 0.00 | 61 | 1014.3 |
| 20260905211503 | 86 | 162 | 13.9 | 22.6 | 0.00 | 0.00 | 0.00 | 59 | 1014.3 |
| 20260905210502 | 87 | 160 | 12.2 | 22.6 | 0.00 | 0.00 | 0.00 | 58 | 1014.6 |
| 20260905210005 | 88 | 167 | 10.4 | 26.1 | 0.00 | 0.00 | 0.00 | 58 | 1014.8 |
| 20260905204004 | 87 | 155 | 13.0 | 22.6 | 0.00 | 0.00 | 0.00 | 59 | 1014.6 |